GW2821 Weather Reports


time (UTC)temp
F
wind
direction
speed
knots
gust
knots
rain 1hr
in
rain 24hr
in
rain mn
in
humidity
%
barometer
mb
20260505011419 49 32 6.1 7.0 0.00 0.00 0.00 53
20260505010355 50 27 9.6 11.3 0.00 0.00 0.00 51
20260505005331 50 44 13.0 14.8 0.00 0.00 0.00 51
20260505004307 51 29 11.3 13.0 0.00 0.00 0.00 50
20260505003315 51 37 10.4 14.8 0.00 0.00 0.00 50
20260505002309 51 58 11.3 13.0 0.00 0.00 0.00 49
20260505001316 52 39 8.7 9.6 0.00 0.00 0.00 48
20260505000307 52 31 7.0 7.8 0.00 0.00 0.00 47
20260504235356 52 67 12.2 16.5 0.00 0.00 0.00 46
20260504234307 53 33 12.2 16.5 0.00 0.00 0.00 45
20260504233315 55 31 8.7 9.6 0.00 0.00 0.00 44
20260504232307 55 27 7.8 11.3 0.00 0.00 0.00 42
20260504231244 54 25 13.9 16.5 0.00 0.00 0.00 41
20260504230339 55 1 6.1 11.3 0.00 0.00 0.00 42
20260504224916 56 348 8.7 11.3 0.00 0.00 0.00 39
20260504223820 56 349 8.7 9.6 0.00 0.00 0.00 40
20260504222814 56 6 12.2 14.8 0.00 0.00 0.00 40
20260504221836 55 48 6.1 9.6 0.00 0.00 0.00 41
20260504220915 55 352 9.6 14.8 0.00 0.00 0.00 41
20260504215523 56 356 8.7 13.0 0.00 0.00 0.00 41
20260504214251 55 21 5.2 7.8 0.00 0.00 0.00 41
20260504210801 56 310 11.3 13.0 0.00 0.00 0.00 38
20260504205645 57 307 12.2 13.9 0.00 0.00 0.00 38
20260504201020 53 315 4.3 5.2 0.00 0.00 0.00 42
20260504195940 53 36 4.3 5.2 0.00 0.00 0.00 42
20260504195004 53 43 5.2 7.0 0.00 0.00 0.00 43
20260504193956 53 70 7.0 7.8 0.00 0.00 0.00 43
20260504192948 53 38 8.7 11.3 0.00 0.00 0.00 43
20260504191659 52 68 4.3 6.1 0.00 0.00 0.00 46
20260504190636 52 311 7.8 11.3 0.00 0.00 0.00 48
20260504185631 51 322 7.8 9.6 0.00 0.00 0.00 47
20260504184638 52 40 6.1 12.2 0.00 0.00 0.00 49
20260504183332 53 27 9.6 12.2 0.00 0.00 0.00 47
20260504182328 53 354 6.1 7.8 0.00 0.00 0.00 48
20260504181317 53 40 7.0 8.7 0.00 0.00 0.00 44
20260504181020 55 22 10.4 12.2 0.00 0.00 0.00 43
20260504175108 56 26 9.6 11.3 0.00 0.00 0.00 41
20260504173956 55 29 7.8 9.6 0.00 0.00 0.00 40
20260504173332 53 29 6.1 7.8 0.00 0.00 0.00 44
20260504171957 55 28 13.0 16.5 0.00 0.00 0.00 42
20260504170932 54 21 8.7 11.3 0.00 0.00 0.00 43
20260504160428 52 321 3.5 4.3 0.00 0.00 0.00 47
20260504150621 49 114 0.9 1.7 0.00 0.00 0.00 50
20260504140533 47 16 5.2 7.8 0.00 0.00 0.00 55
20260504130341 47 278 13.0 15.6 0.00 0.00 0.00 54
20260504070356 53 62 4.3 5.2 0.00 0.00 0.00 35
20260504060149 56 91 4.3 5.2 0.00 0.00 0.00 34